FW9377 Weather Reports


time (UTC)temp
C
wind
direction
speed
KPH
gust
KPH
rain 1hr
cm
rain 24hr
cm
rain mn
cm
humidity
%
barometer
mb
20260504220058 26 171 3.2 17.7 0.00 0.00 0.00 59 1012.0
20260504214558 27 187 6.4 19.3 0.00 0.00 0.00 58 1012.0
20260504213057 27 192 6.4 19.3 0.00 0.00 0.00 56 1012.1
20260504211600 27 169 6.4 17.7 0.00 0.00 0.00 54 1012.2
20260504210109 28 172 4.8 14.5 0.00 0.00 0.00 54 1012.3
20260504204607 28 148 4.8 12.9 0.00 0.00 0.00 53 1012.6
20260504203110 28 139 4.8 17.7 0.00 0.00 0.00 52 1012.9
20260504201600 28 161 4.8 12.9 0.00 0.00 0.00 53 1013.2
20260504200100 28 223 6.4 16.1 0.00 0.00 0.00 52 1013.4
20260504194610 28 167 4.8 16.1 0.00 0.00 0.00 51 1013.6
20260504193107 28 191 8.0 16.1 0.00 0.00 0.00 51 1013.7
20260504191600 27 209 8.0 17.7 0.00 0.00 0.00 51 1014.0
20260504190129 27 153 3.2 17.7 0.00 0.00 0.00 52 1014.2
20260504184600 27 232 4.8 14.5 0.00 0.00 0.00 51 1014.3
20260504183101 27 198 8.0 22.5 0.00 0.00 0.00 52 1014.4
20260504181559 27 208 3.2 16.1 0.00 0.00 0.00 52 1014.5
20260504180059 27 187 8.0 24.1 0.00 0.00 0.00 51 1014.9
20260504174608 26 180 8.0 19.3 0.00 0.00 0.00 52 1015.1
20260504173101 26 136 9.7 22.5 0.00 0.00 0.00 54 1015.2
20260504171601 26 190 4.8 20.9 0.00 0.00 0.00 50 1015.6
20260504160107 25 125 4.8 22.5 0.00 0.00 0.00 60 1016.5
20260504081607 17 0 0.0 0.0 0.00 0.00 0.00 70 1016.9
20260504060126 18 0 0.0 6.4 0.00 0.00 0.00 65 1018.5
20260504050116 18 0 1.6 8.0 0.00 0.00 0.00 61 1018.9
20260504044604 19 0 0.0 3.2 0.00 0.00 0.00 61 1019.0
20260504043110 19 0 0.0 1.6 0.00 0.00 0.00 59 1018.9
20260504041600 20 0 0.0 9.7 0.00 0.00 0.00 59 1019.0
20260504040106 20 181 0.0 6.4 0.00 0.00 0.00 58 1018.9
20260504034602 20 0 0.0 8.0 0.00 0.00 0.00 57 1019.0
20260504033100 20 0 1.6 8.0 0.00 0.00 0.00 56 1019.0
20260504031605 20 0 3.2 11.3 0.00 0.00 0.00 55 1018.9
20260504030057 21 169 1.6 6.4 0.00 0.00 0.00 54 1018.7
20260504024601 21 188 3.2 9.7 0.00 0.00 0.00 53 1018.6
20260504023059 21 170 0.0 9.7 0.00 0.00 0.00 52 1018.7
20260504021601 21 150 1.6 11.3 0.00 0.00 0.00 51 1018.6
20260504020058 22 165 0.0 12.9 0.00 0.00 0.00 49 1018.7
20260504014603 22 0 3.2 9.7 0.00 0.00 0.00 48 1018.7
20260504013113 22 0 1.6 12.9 0.00 0.00 0.00 47 1018.5
20260504011559 23 168 1.6 9.7 0.00 0.00 0.00 45 1018.4
20260504010115 23 154 3.2 9.7 0.00 0.00 0.00 44 1018.5
20260504004600 23 164 4.8 14.5 0.00 0.00 0.00 43 1018.4
20260504003057 24 155 1.6 14.5 0.00 0.00 0.00 41 1018.3
20260504001603 25 185 3.2 14.5 0.00 0.00 0.00 40 1018.3
20260504000101 25 116 3.2 17.7 0.00 0.00 0.00 39 1018.4
20260503234601 26 181 4.8 19.3 0.00 0.00 0.00 39 1018.4
20260503233104 26 198 6.4 14.5 0.00 0.00 0.00 38 1018.5
20260503231558 26 138 3.2 12.9 0.00 0.00 0.00 37 1018.6
20260503224600 26 107 3.2 11.3 0.00 0.00 0.00 33 1018.7
20260503223100 26 174 4.8 11.3 0.00 0.00 0.00 32 1018.8
20260503221606 26 146 0.0 11.3 0.00 0.00 0.00 32 1019.2